Provo, UT

5:53 PM MDT on July 27, 2017 (GMT -0600)
Provo Municipal

Weather History for KPVU - May, 2013

Change the Weather History Date:

Sunday, May 5, 2013

  Actual Average Record
Temperature  
Mean Temperature 63 °F -  
Max Temperature 78 °F 64 °F 87 °F (1992)
Min Temperature 48 °F 40 °F 30 °F (1999)
Degree Days  
Heating Degree Days 2    
Growing Degree Days 13 (Base 50)    
Moisture  
Dew Point 34 °F    
Average Humidity 41    
Maximum Humidity 66    
Minimum Humidity 14    
Precipitation  
Precipitation 0.00 in - - ()
Sea Level Pressure  
Sea Level Pressure 29.88 in    
Wind  
Wind Speed 7 mph (NW)    
Max Wind Speed 17 mph    
Max Gust Speed 25 mph    
Visibility 12 miles    
Events      
Averages and records for this station are not official NWS values.
T = Trace of Precipitation, MM = Missing Value Source: NWS Daily Summary

Daily Weather History Graph

Daily Weather History Graph

Search for Another Location

Airport or City:

Trip Planner

Search our weather history database for the weather conditions in past years. The results will help you decide how hot, cold, wet, or windy it might be!

Date:

Astronomy

May. 05, 2013 Rise Set
Actual Time 6:21 AM MDT 8:26 PM MDT
Civil Twilight 5:51 AM MDT 8:56 PM MDT
Nautical Twilight 5:14 AM MDT 9:33 PM MDT
Astronomical Twilight 4:35 AM MDT 10:12 PM MDT
Moon 3:54 AM MDT (5/5) 4:29 PM MDT (5/5)
Length of Visible Light 15h 04m
Length of Day
14h 05m
Waning Crescent, 17% of the Moon is Illuminated
May 5
Waning Crescent
May 9
New
May 17
First Quarter
May 24
Full
May 31
Last Quarter

Hourly Weather History & Observations

Time (MDT) Temp. Dew Point Humidity Pressure Visibility Wind Dir Wind Speed Gust Speed Precip Events Conditions
12:15 AM 53.6 °F 33.8 °F 47% 29.88 in 10.0 mi NNE 3.5 mph - N/A   Clear
12:35 AM 53.6 °F 35.6 °F 51% 29.88 in 10.0 mi Calm Calm - N/A   Clear
12:55 AM 53.6 °F 37.4 °F 54% 29.88 in 10.0 mi Calm Calm - N/A   Clear
1:15 AM 48.2 °F 37.4 °F 66% 29.87 in 10.0 mi NNE 8.1 mph - N/A   Clear
1:35 AM 51.8 °F 37.4 °F 58% 29.87 in 10.0 mi NNW 5.8 mph - N/A   Clear
1:55 AM 51.8 °F 37.4 °F 58% 29.89 in 10.0 mi Calm Calm - N/A   Clear
2:15 AM 55.4 °F 32.0 °F 41% 29.89 in 10.0 mi NW 11.5 mph - N/A   Clear
2:35 AM 55.4 °F 32.0 °F 41% 29.88 in 10.0 mi NNW 6.9 mph - N/A   Clear
2:55 AM 51.8 °F 35.6 °F 54% 29.88 in 10.0 mi NNE 8.1 mph - N/A   Scattered Clouds
3:15 AM 55.4 °F 30.2 °F 38% 29.88 in 10.0 mi NNW 10.4 mph - N/A   Partly Cloudy
3:35 AM 55.4 °F 35.6 °F 47% 29.87 in 10.0 mi NW 16.1 mph - N/A   Clear
3:55 AM 55.4 °F 35.6 °F 47% 29.87 in 10.0 mi NW 13.8 mph - N/A   Clear
4:15 AM 55.4 °F 33.8 °F 44% 29.87 in 10.0 mi NNW 16.1 mph - N/A   Clear
4:35 AM 55.4 °F 32.0 °F 41% 29.87 in 10.0 mi NNW 13.8 mph - N/A   Clear
4:55 AM 55.4 °F 30.2 °F 38% 29.87 in 10.0 mi North 13.8 mph - N/A   Clear
5:15 AM 53.6 °F 35.6 °F 51% 29.86 in 10.0 mi NNW 11.5 mph - N/A   Clear
5:35 AM 53.6 °F 32.0 °F 44% 29.87 in 10.0 mi NW 16.1 mph - N/A   Clear
5:55 AM 53.6 °F 32.0 °F 44% 29.88 in 10.0 mi North 10.4 mph 20.7 mph N/A   Clear
6:15 AM 53.6 °F 30.2 °F 41% 29.88 in 10.0 mi North 13.8 mph 17.3 mph N/A   Clear
6:35 AM 53.6 °F 30.2 °F 41% 29.88 in 10.0 mi NNW 3.5 mph - N/A   Clear
6:47 AM 51.8 °F 32.0 °F 47% 29.88 in 15.0 mi Calm Calm - N/A   Mostly Cloudy
7:55 AM 53.6 °F 35.6 °F 51% 29.91 in 15.0 mi East 3.5 mph - N/A   Mostly Cloudy
8:53 AM 55.4 °F 39.2 °F 54% 29.92 in 15.0 mi ENE 6.9 mph - N/A   Mostly Cloudy
9:47 AM 59.0 °F 37.4 °F 45% 29.93 in 15.0 mi NE 6.9 mph - N/A   Mostly Cloudy
10:54 AM 62.6 °F 37.4 °F 39% 29.92 in 15.0 mi Variable 5.8 mph - N/A   Scattered Clouds
12:47 PM 66.2 °F 41.0 °F 40% 29.91 in 15.0 mi WSW 9.2 mph - N/A   Scattered Clouds
1:47 PM 71.6 °F 32.0 °F 23% 29.89 in 15.0 mi WSW 5.8 mph - N/A   Scattered Clouds
2:47 PM 73.4 °F 24.8 °F 16% 29.87 in 15.0 mi WSW 4.6 mph - N/A   Scattered Clouds
3:47 PM 75.2 °F 26.6 °F 17% 29.86 in 15.0 mi SSW 4.6 mph - N/A   Scattered Clouds
4:50 PM 75.2 °F 28.4 °F 18% 29.84 in 15.0 mi East 6.9 mph - N/A   Mostly Cloudy
6:50 PM 73.4 °F 26.6 °F 18% 29.83 in 15.0 mi SE 11.5 mph - N/A   Overcast
7:50 PM 68.0 °F 30.2 °F 24% 29.85 in 15.0 mi SSE 13.8 mph - N/A   Mostly Cloudy
8:47 PM 78.8 °F 24.8 °F 14% 29.79 in 10.0 mi WSW 9.2 mph - N/A   Mostly Cloudy
8:50 PM 64.4 °F 32.0 °F 30% 29.85 in 15.0 mi Variable 4.6 mph - N/A   Mostly Cloudy
9:15 PM 62.6 °F 37.4 °F 39% 29.86 in 10.0 mi SSE 6.9 mph - N/A   Mostly Cloudy
9:35 PM 64.4 °F 37.4 °F 37% 29.87 in 10.0 mi ESE 3.5 mph - N/A   Overcast
9:55 PM 62.6 °F 35.6 °F 37% 29.88 in 10.0 mi SSW 5.8 mph - N/A   Overcast
10:15 PM 62.6 °F 35.6 °F 37% 29.88 in 10.0 mi SSW 9.2 mph - N/A   Partly Cloudy
10:35 PM 62.6 °F 39.2 °F 42% 29.89 in 10.0 mi South 5.8 mph - N/A   Clear
10:55 PM 60.8 °F 41.0 °F 48% 29.89 in 10.0 mi South 4.6 mph - N/A   Clear
11:15 PM 60.8 °F 42.8 °F 52% 29.89 in 10.0 mi SSW 8.1 mph - N/A   Clear
11:35 PM 62.6 °F 41.0 °F 45% 29.91 in 10.0 mi SW 13.8 mph 20.7 mph N/A   Mostly Cloudy
11:55 PM 62.6 °F 35.6 °F 37% 29.91 in 10.0 mi SW 17.3 mph 25.3 mph N/A   Mostly Cloudy